Showing default

JILIN-01-07, 43159

Orbit data source: Space-Track

JILIN-01-07, 43159 is a Chinese payload satellite in SSO that was launched on Fri, 19 Jan 2018 UTC via a CHANG ZHENG 11 launch vehicle from the Jiuquan Satellite Launch Center, China (JSC). Payload-class satellites include a variety of spacecraft equipped with specific instruments for various scientific and technological missions. These include communications satellites like Starlink; space stations such as the ISS; scientific satellites like the Hubble; Earth observation satellites from companies like Planet Labs, Umbra, and HawkEye 360; GPS; miniature CubeSats for education and research; and military/defense satellites.

Loading next visibility...
Identifier
43159, 2018-008E
Orbit
SSO
Last TLE update
4 hours ago
Origin
Manufacturer
Changguang WJ
Mission
Operational Commercial Imaging
Bus & Motor
JL-1, Unknown motor
Mass
95 kg wet, 95 kg dry
Launch date (UTC)
2018-01-19 (7 years ago)
Launch vehicle
CHANG ZHENG 11
Launch site
Jiuquan Satellite Launch Center, China (JSC)
Object type
Payload
Rocket body
Debris
Shape & HBR
Box + 2 Pan, 1.5 m
Radar Cross Section
2.000 m², Medium (>0.1 m² and < 1m²)

Expand to show TLE details & history

TLE from 4 hours ago
0 JILIN-01-07
1 43159U 18008E   25129.20868107  .00009551  00000-0  35807-3 0  9996
2 43159  97.2092 156.3162 0011328  68.5189 291.7257 15.27392455403192
Epoch: 2025-05-09T05:00Z
Definitive object data (Epoch: 2025-05-09T05:00:30.044Z)
Latitude
-0.00007°
Longitude
-146.07709°
Altitude
483.846 km
Speed
7.625 km/s
True Right ascension
10h 25m 15s
True Declination
0° 00' 00"
Sunlit
Object was in daylight at TLE epoch
Visualization TLE readout
Latitude
42.71771°
Longitude
40.74361°
Altitude
487.19 km
Speed
7.627 km/s
Apparent Right ascension
01h 49m 49s
Apparent Declination
4° 36' 02"
Sunlit
Object is in daylight
Visualization observer readout
Local Sidereal Time
16:54:11
Azimuth
54.878° ENE
Elevation
-28.604°
Doppler factor
1
Orbital elements
Apogee altitude
488.328 km
Perigee altitude
472.789 km
Semi-major axis
6,858.695 km
Eccentricity
0.0011328
Inclination
97.2092°
RAAN
156.3162°
Arg. of periapsis
68.5189°
True anomaly
291.60505°
Mean anomaly
291.7257°
Eccentric anomaly
291.66538°
Mean motion
3.82103 °/min
BSTAR
0.00035807
Orbital period
94.22 mins
Loading maneuver chart data...
Loading SW <> Apogee altitude chart data...
Loading historical data...
Loading historical data...
Loading historical data...
Loading historical data...
Loading historical data...
Loading historical data...
Loading historical data...

JILIN-01-07 Visibility forecast

Observer location: undefined°, undefined°

Span
Click to sort rows by Start time (UTC) header in descending order
Start Az.
Max El. time (UTC)
Max El. Az.
Max El.
End time (UTC)
End Az.
6 mins2025-05-09 14:59:58.372Z354.693° N2025-05-09 15:02:58.372Z275.602° WNW34.184°2025-05-09 15:05:58.372Z214.422° SW
5 mins2025-05-10 01:35:58.372Z141.207° SSE2025-05-10 01:37:58.372Z47.303° ENE37.857°2025-05-10 01:40:58.372Z357.824° N
|